YAOGAN-4

Last updated on Sun Apr 12 2026 00:02:34 GMT+0000 (Coordinated Universal Time)

1 33446U 08061A 26101.37579411 .00000870 00000+0 11340-3 0 9998 2 33446 97.9275 35.3988 0012940 290.9574 69.0254 14.83077058935768
UTC large
Height (km)
Speed (km/s)
/
Latitude / Longitude
Inclination (degrees)
Orbital Period (minutes)
Azimuth
Elevation
Range (km)
Doppler Factor

Next 0 passes for location: London (51.5072 / 0.1276)

Sorry there are no passes over London.
YAOGAN-4